Theta_e
299 300 299 300 300 300 300 301 301 301 301 301 301 301 301 302 301 301 302 302 305 303 304 306 307 306 304 306 310 317 321 322 322 324 324 322 318 316 317 318 319 318 318 319 318
299 299 299 299 299 300 300 300 301 301 301 301 301 301 301 302 302 302 303 302 303 302 304 308 308 306 304 305 308 319 319 321 319 315 316 314 316 314 314 312 312 314 315 316 316
299 299 299 299 299 300 300 300 301 301 301 301 301 301 301 301 301 303 303 302 302 302 307 308 309 306 306 309 315 316 319 318 314 312 311 311 315 315 312 310 314 315 315 314 313
300 300 300 300 300 300 300 300 300 301 301 301 301 301 300 300 301 304 303 302 302 303 309 307 310 308 312 311 315 316 315 316 313 311 311 310 309 311 312 316 318 317 317 314 313
301 301 301 302 302 302 301 301 301 301 300 300 300 300 300 300 302 302 303 302 303 306 309 309 308 312 313 313 313 314 313 311 310 309 308 309 307 308 309 315 313 315 313 314 314
303 304 306 308 309 305 303 302 302 301 301 300 300 300 299 298 302 302 302 302 303 307 310 309 308 310 312 312 312 310 309 309 308 308 307 305 307 308 312 317 312 311 312 312 313
309 310 312 313 311 303 302 302 302 302 301 300 300 299 299 301 302 301 301 301 302 306 308 310 309 309 310 309 308 307 309 308 306 306 305 304 308 304 312 315 315 313 313 312 312
313 313 314 315 315 305 308 302 302 302 301 300 299 299 299 301 301 301 301 301 302 303 305 307 309 308 308 307 306 308 306 311 308 303 304 307 312 311 309 309 310 313 313 311 312
315 315 315 315 315 310 311 311 304 301 299 299 299 299 300 300 301 300 300 301 302 302 303 305 306 306 305 306 306 306 308 308 310 303 303 304 308 308 305 304 306 308 311 311 311
315 315 315 315 316 314 313 314 304 303 300 299 299 300 300 300 300 300 300 301 301 301 302 303 303 302 302 305 310 307 307 307 308 304 302 301 302 304 305 305 303 305 306 308 308
315 315 315 315 315 315 314 313 310 304 303 304 302 301 301 301 300 299 300 300 301 301 300 302 299 300 303 303 304 304 304 303 303 302 302 301 302 304 304 302 301 303 305 305 307
314 314 314 315 315 315 315 314 312 308 302 311 307 301 300 300 299 299 299 300 301 299 300 299 298 299 301 301 302 302 302 301 302 302 301 301 301 303 304 303 303 304 304 304 306
313 314 314 314 314 314 314 314 314 305 300 304 302 301 300 300 299 299 299 300 299 299 299 298 300 300 301 301 301 301 301 302 303 303 301 300 302 303 304 303 305 305 305 305 306
312 311 313 313 314 314 314 314 314 303 296 304 299 299 299 298 298 300 299 300 300 299 299 298 299 300 300 301 300 301 301 303 303 303 301 303 302 303 306 306 305 306 305 305 306
299 305 310 311 311 312 313 314 313 306 309 304 298 298 298 299 299 298 299 300 299 299 299 299 298 299 300 300 299 300 301 302 302 302 302 302 302 301 303 307 307 305 306 308 307
296 296 296 303 309 311 312 314 312 309 309 301 298 297 298 298 299 298 299 300 300 299 299 298 298 298 299 297 299 299 300 301 301 300 301 300 301 300 305 307 308 306 307 307 307
294 295 295 295 299 310 312 313 311 316 303 302 297 298 298 298 298 298 298 298 298 295 298 299 298 297 297 297 298 300 299 303 303 299 303 301 301 303 304 305 306 307 307 308 308
294 294 293 293 294 306 309 308 313 312 302 302 299 298 298 298 298 298 298 296 296 300 295 298 299 296 296 297 298 298 299 303 302 307 308 301 304 306 305 304 305 307 307 307 307
294 293 293 293 293 302 307 310 310 310 310 303 299 299 293 299 298 297 297 296 297 298 300 297 301 296 296 296 297 298 300 301 302 296 301 303 302 303 305 302 303 302 304 305 306
293 292 292 295 293 301 304 306 305 308 306 301 307 302 297 295 298 298 297 297 299 297 296 300 301 296 296 296 296 297 298 300 299 298 301 304 304 305 307 306 302 302 301 304 305
293 292 293 297 298 301 303 304 302 306 311 309 310 309 304 302 299 299 301 300 298 299 298 295 300 297 295 295 297 296 298 297 298 302 304 306 306 302 304 305 303 301 303 305 305
293 289 293 294 298 300 301 299 303 303 306 307 308 311 312 308 303 306 305 303 300 300 302 301 301 296 295 295 295 296 298 299 300 301 302 306 306 305 303 304 302 304 305 305 305
292 291 292 291 293 298 300 301 301 302 303 304 307 308 309 310 309 304 303 302 300 300 302 301 302 297 297 295 293 293 296 298 299 300 300 303 305 302 304 305 305 305 307 307 306
290 291 292 293 293 295 296 299 300 301 301 302 303 304 305 308 309 308 308 304 299 301 303 304 303 305 307 300 294 292 292 297 297 297 303 304 305 306 304 304 303 305 307 307 308
290 291 290 283 288 294 294 295 296 297 298 300 301 301 302 304 305 306 307 300 299 301 300 303 304 305 306 301 296 297 292 296 299 301 301 304 302 302 302 302 302 304 305 307 307
289 289 291 291 291 290 290 293 293 294 296 296 298 297 299 302 303 304 305 307 308 299 300 299 306 302 306 305 304 304 303 295 298 299 300 301 300 302 301 302 301 303 305 305 306
288 289 288 289 286 287 289 291 291 292 292 293 294 294 294 297 297 296 296 298 301 302 301 299 302 301 307 306 306 304 304 304 301 297 299 300 301 302 301 301 302 304 304 305 306
Wind_Speed
7 8 9 9 9 9 10 11 12 13 13 13 13 14 14 15 15 15 16 14 10 8 10 8 7 8 10 10 12 8 2 5 6 6 7 5 4 6 7 11 12 12 7 8 22
9 9 10 10 11 12 11 12 12 12 14 14 13 14 14 15 15 19 18 16 13 11 9 7 5 5 6 6 10 6 4 8 4 2 4 5 4 9 6 6 6 13 13 13 24
11 12 13 13 13 13 13 13 14 14 14 14 14 13 13 13 15 6 5 15 16 11 9 6 8 7 3 5 6 7 6 3 2 2 4 5 3 6 6 5 15 28 22 21 27
13 14 14 16 17 16 16 15 15 16 15 15 13 13 12 10 5 2 1 5 9 9 7 8 7 10 3 4 10 3 5 6 3 4 4 3 7 5 14 11 10 23 25 25 29
14 15 16 17 18 18 18 17 16 16 16 16 13 12 11 8 11 11 9 9 8 9 8 10 9 4 7 4 3 5 3 5 8 9 10 10 11 10 12 24 12 11 23 29 30
14 15 16 18 21 19 17 17 17 16 16 15 14 12 11 6 10 10 10 9 8 11 12 13 4 6 5 5 9 6 5 9 9 12 8 5 6 5 12 24 25 17 20 29 33
14 15 17 18 22 19 19 18 17 16 16 15 14 13 14 19 13 10 9 8 10 12 14 14 13 7 2 2 4 3 3 5 9 8 5 2 10 13 31 26 24 33 32 31 30
16 16 17 19 21 16 20 19 17 16 14 14 12 11 10 12 12 12 11 9 9 12 14 11 12 7 5 2 1 4 1 2 1 8 3 6 14 3 4 22 31 28 35 33 37
18 19 21 22 22 19 20 22 17 12 10 9 9 8 9 9 10 13 11 8 7 7 9 9 9 6 3 2 2 1 5 5 4 8 4 6 10 6 4 5 21 30 32 33 37
22 21 22 23 23 22 21 22 11 8 6 6 9 5 11 7 7 8 11 10 5 6 6 6 4 3 1 4 6 6 6 5 5 5 4 4 22 17 26 19 20 20 25 33 34
23 23 23 21 22 21 21 16 8 3 5 10 8 10 6 8 7 7 10 10 7 5 5 3 3 9 14 9 2 3 3 4 3 3 3 9 18 19 20 17 21 31 37 34 38
26 24 24 21 20 17 16 9 10 11 14 20 25 27 21 10 4 11 11 10 7 6 5 2 9 8 2 5 6 4 4 6 4 2 3 6 17 18 17 14 25 31 32 43 44
22 22 21 20 19 13 16 12 17 14 6 10 11 10 13 16 9 12 17 9 5 6 8 8 4 3 5 4 5 4 6 4 5 3 4 6 11 8 8 13 23 30 35 35 42
28 26 24 21 14 11 14 14 17 12 3 6 5 4 7 7 4 10 17 9 4 10 7 7 3 5 4 5 7 5 4 2 2 1 4 1 7 7 7 11 7 16 24 33 37
30 32 30 19 20 20 14 15 15 5 5 3 4 6 8 6 5 5 11 6 6 6 6 7 6 5 4 5 7 5 2 3 2 2 4 2 3 8 5 8 11 8 20 25 28
25 24 25 24 16 21 16 11 10 2 9 4 6 6 4 5 3 5 4 3 2 4 0 3 1 3 4 3 2 5 5 6 5 2 3 8 8 5 5 6 5 3 7 11 14
28 27 24 19 17 12 13 6 3 6 3 4 5 6 4 7 5 6 6 6 6 4 5 0 4 2 3 4 4 2 6 1 3 1 7 3 4 5 10 9 6 3 10 9 11
29 31 32 27 19 24 20 1 11 7 8 1 3 3 5 7 5 7 6 4 7 2 3 7 5 9 6 6 6 7 6 5 8 4 3 2 8 7 10 9 17 18 13 10 14
32 35 38 24 14 25 16 12 11 11 8 9 3 4 4 4 5 4 8 6 9 14 10 5 5 2 2 1 3 6 6 3 4 1 3 5 7 10 10 10 5 8 12 15 17
30 33 32 10 15 21 12 28 11 10 2 4 11 9 8 5 8 8 9 5 6 15 2 7 1 1 2 2 2 4 1 2 2 2 5 5 6 8 5 6 6 6 11 17 15
26 13 10 13 14 19 16 18 16 29 10 12 16 8 8 7 7 5 6 4 6 5 3 4 4 0 2 8 11 4 4 2 2 4 5 2 6 7 8 7 9 10 17 16 16
18 3 5 15 8 7 15 7 10 9 18 23 3 13 16 11 6 14 13 8 10 7 8 5 4 5 9 1 1 2 6 7 4 6 4 3 11 2 5 2 6 3 6 14 18
11 13 17 17 5 8 7 9 6 15 8 5 8 12 12 14 8 8 6 4 14 10 9 6 3 1 5 4 4 5 6 4 4 2 8 6 7 2 2 3 2 3 1 1 10
10 4 5 10 19 14 17 10 15 12 7 8 7 7 5 9 15 6 7 3 5 6 16 11 3 6 9 5 5 4 5 13 6 3 9 17 8 3 2 5 5 7 2 6 9
7 3 6 3 4 7 9 9 20 14 5 7 5 16 19 8 15 16 15 3 2 8 0 8 10 14 23 8 5 5 5 10 17 25 9 24 14 9 8 8 7 11 15 11 14
7 5 11 4 7 8 4 4 15 13 5 11 8 15 15 6 12 13 5 6 14 4 6 3 7 3 14 18 8 12 11 10 20 20 18 22 16 1 6 13 10 18 19 18 21
16 17 11 10 3 2 4 9 13 17 8 6 11 13 10 13 9 11 17 16 10 3 11 11 8 7 5 7 10 5 23 18 12 11 16 16 19 5 10 14 17 25 24 32 39
Wind_Direction
351 339 336 327 322 318 319 315 314 312 310 307 301 299 293 298 289 281 263 246 254 279 279 276 262 257 234 209 186 190 178 232 230 200 244 262 181 197 183 165 180 197 208 205 187
345 336 330 326 322 317 316 312 310 307 305 307 303 300 297 300 293 277 264 238 246 280 280 264 214 208 192 188 193 175 185 220 212 217 261 283 219 186 168 172 198 205 204 190 185
347 340 335 331 325 318 313 313 309 303 298 302 302 299 301 310 305 277 280 242 258 269 252 250 198 184 198 188 205 196 218 204 266 276 275 276 271 207 168 224 209 207 198 187 186
352 345 338 333 329 324 319 311 306 303 299 300 296 294 296 299 280 290 258 264 272 253 229 191 200 172 160 204 215 233 251 253 259 268 295 268 297 273 222 227 251 235 221 199 197
356 352 347 342 333 324 317 311 306 301 295 296 289 283 285 274 258 269 273 277 267 226 200 196 229 219 164 189 224 221 261 261 254 256 264 268 251 242 250 238 241 217 214 214 214
3 359 354 350 342 332 320 310 305 300 297 294 285 277 268 248 263 265 269 268 253 218 207 206 235 269 273 215 167 193 222 260 254 249 241 235 256 232 244 237 230 214 212 220 220
360 356 353 351 350 342 331 318 306 297 293 287 279 272 262 263 262 262 267 262 240 224 221 220 229 252 300 285 279 190 253 282 224 223 239 199 280 231 247 239 235 229 231 228 227
346 346 346 346 349 338 339 329 312 295 283 276 267 264 259 259 253 249 251 244 240 227 222 223 225 244 243 197 18 289 123 265 198 149 203 150 264 226 320 231 235 236 234 230 229
337 337 338 340 344 342 337 334 315 288 267 255 252 240 262 260 245 237 230 225 220 216 208 204 191 210 188 154 343 190 275 219 301 199 139 172 268 262 224 241 243 239 234 233 231
331 330 331 332 335 337 341 341 324 305 273 254 233 267 243 246 233 226 217 208 190 175 162 178 189 167 226 157 222 204 220 251 232 206 198 210 262 268 269 266 255 253 245 237 236
322 322 325 328 326 330 338 342 337 295 282 244 261 229 241 232 237 217 203 194 179 179 182 209 149 213 205 199 178 147 222 262 277 203 211 229 257 261 272 262 255 249 247 243 238
309 311 315 321 322 322 334 8 346 303 298 277 257 245 249 225 236 218 194 180 175 195 129 49 237 237 244 207 229 230 250 260 259 146 205 292 273 274 265 250 238 244 237 241 241
304 306 308 318 323 309 335 337 335 328 264 281 240 235 234 229 227 212 193 187 178 169 195 178 222 146 167 180 188 228 207 219 236 312 227 307 274 257 259 247 255 245 245 245 243
288 292 299 304 309 301 319 323 332 332 33 260 217 224 188 170 241 203 193 186 186 205 174 230 226 176 173 212 166 247 206 162 170 121 248 170 286 281 276 277 254 254 242 243 243
291 287 282 285 290 293 298 305 324 337 321 216 185 165 168 187 144 195 188 181 180 183 126 236 174 176 184 208 167 227 118 141 109 183 355 232 280 272 272 277 263 271 256 246 243
320 315 295 277 263 277 281 276 305 60 245 245 153 173 148 199 199 133 167 191 135 132 127 253 329 200 200 79 36 132 70 43 47 68 296 199 190 232 228 238 286 295 311 246 241
318 316 310 294 259 257 245 260 297 218 338 254 204 167 193 188 196 171 168 177 170 105 221 192 215 188 156 95 22 97 101 327 341 347 231 151 183 262 267 248 232 255 279 254 230
314 311 299 286 269 237 246 233 222 224 240 304 143 121 196 159 229 177 150 217 236 136 120 165 283 169 180 200 177 184 174 170 206 205 252 37 234 253 243 283 260 267 252 219 204
312 312 306 295 266 214 218 228 222 209 189 157 134 161 279 246 177 150 196 214 208 180 180 141 261 145 125 136 146 193 206 198 103 67 35 224 280 294 261 255 258 231 198 208 205
310 312 311 293 219 209 231 230 225 219 154 155 193 180 202 218 179 177 180 207 229 193 163 201 99 238 134 143 231 178 224 111 359 186 246 272 266 233 273 246 224 233 226 222 221
302 309 303 297 203 206 215 228 236 243 242 239 236 205 206 169 201 211 210 256 213 171 134 139 126 166 84 205 182 156 204 201 138 168 183 273 258 220 236 209 212 232 233 226 221
269 245 284 311 252 231 230 217 270 271 234 242 283 224 223 213 213 218 217 230 164 148 160 217 150 172 205 261 357 243 189 165 142 224 230 179 256 275 264 178 207 257 256 244 235
281 252 275 277 270 283 274 264 272 272 292 280 243 245 256 244 240 199 214 253 173 153 172 191 203 89 341 353 354 207 208 206 116 90 216 150 254 301 185 86 72 147 120 218 226
320 287 242 219 245 263 291 275 264 272 288 267 284 311 287 246 235 242 229 247 170 183 176 125 198 204 219 192 135 197 211 197 162 159 221 230 218 336 282 218 200 199 140 241 223
306 280 262 276 273 271 278 293 289 284 320 309 289 233 255 257 260 245 239 165 128 179 101 164 209 206 230 188 174 197 190 203 206 227 196 249 225 226 243 235 246 280 293 264 244
309 346 313 272 295 310 329 303 278 318 343 277 271 327 296 288 262 275 315 225 231 173 176 198 231 162 252 231 215 242 253 212 224 243 252 262 269 16 282 291 313 299 290 280 272
284 289 300 298 314 301 278 295 276 313 282 288 335 329 320 318 359 318 281 273 281 259 179 171 170 168 236 195 235 219 231 230 226 210 223 243 251 216 262 264 258 262 271 273 276